Location: Utrecht
(52.0907°N, 5.1214°E)
Time: 09:46:59
(UTC+02:00)

MOZHAYETS 4 - Pass Details

Date: 02 July 2022
Orbit: 660 x 678 km, 98.2° (Epoch: 17 August)

Event Time Altitude Azimuth Distance (km) Brightness Sun altitude
Rises 01:57:18 0° 106° (ESE) 3,027 11.0 -14.8°
Reaches altitude 10° 02:00:39 10° 80° (E) 2,113 10.5 -14.8°
Maximum altitude 02:02:47 13° 52° (NE) 1,900 10.6 -14.7°
Drops below altitude 10° 02:04:56 10° 24° (NNE) 2,114 11.5 -14.7°
Sets 02:08:16 0° 358° (N) 3,029 12.9 -14.7°
